Погода в Сосновке

Россия / Орловская область     52°20′13″N   37°21′23″E
темп.,
°C
ветер,
м/с
пор.,
м/с
влажн.,
%
обл.,
%
осадки,
мм/ч
давл.,
гПа
погр.,
м
28 ноября, вс
вс2800:00+3ю5119799 0.1 1005288
03:00+3ююз499897 0.1 1005223
06:00+4ююз399999 0.0 1005278
09:00+5ююз3697100 0.0 1006166
12:00+7юз358982 0.0 1008365
15:00+6юз3487100 0.0 1009392
18:00+6ююв4587100 0.0 1009151
21:00+6ююв5887100 0.0 1009470
29 ноября, пн
пн2900:00+5юв41092100 0.0 1008259
03:00+5вюв41096100 0.0 1007247
06:00+5в41099100 0.7 1003277
09:00+7юв61396100 4.6 1000525
12:00+8ю51298100 0.4 998539
15:00+9ю61295100 0.5 997607
18:00+8ююв51295100 0.6 994472
21:00+8юв61298100 2.4 988535
30 ноября, вт
вт3000:00+10ююв71493100 11.1 982794
03:00+8ююз91786100 14.8 9801352
06:00+4юз142092100 1.9 982981
09:00+2зюз142292100 2.5 9871231
12:00+2зюз132071100 0.2 9901246
15:00+2зюз121969100 0.2 9911271
18:00+1юз91670100 0.0 9921266
21:00+1юз9167470 0.0 993967
1 декабря, ср
ср100:00−1зюз7138294 0.0 992811
03:00−1зюз8128093 0.1 9931089
06:00−2з81379100 0.0 993990
09:00−2з71293100 0.4 9951096
12:00−2з81290100 1.1 9961035
15:00−2з81282100 1.6 9971048
18:00−3з81379100 0.1 1000897
21:00−4з7138599 0.1 1001702
2 декабря, чт
чт200:00−5з6118689 0.0 1003608
03:00−5з498961 0.0 1005417
06:00−5зюз499199 0.0 1006310
09:00−4ююз41183100 0.0 1006390
12:00−1ююз71481100 0.0 1005676
15:000ююз81692100 1.1 1004686
18:00+1юз7158694 0.0 1005547
21:000юз61588100 0.0 1006413